Regional Weather Roundup
Issued by NWS

Home | Current Version | Previous Version | Text Only | Print | Product List | Glossary On
Versions: 1 2 3 4 5 6 7 8 9 10 11 12 13 14 15 16 17 18 19 20 21 22 23 24 25 26 27 28 29 30 31 32 33 34 35 36 37 38 39 40 41 42 43 44 45 46 47 48 49 50
000
ASUS43 KBIS 210702
RWRND

NORTH DAKOTA REGIONAL WEATHER ROUNDUP
NATIONAL WEATHER SERVICE BISMARCK ND
100 AM CST TUE FEB 21 2017

NOTE: "FAIR" INDICATES FEW OR NO CLOUDS BELOW 12,000 FEET WITH NO
SIGNIFICANT WEATHER AND/OR OBSTRUCTIONS TO VISIBILITY.


NDZ001>003-009>011-017-210800-
NORTHWEST NORTH DAKOTA

CITY           SKY/WX    TMP DP  RH WIND       PRES   REMARKS
WILLISTON      CLOUDY    38  30  73 S6        29.63F
MINOT          CLOUDY    40  30  67 CALM      29.67S
MINOT AFB      CLOUDY    37  30  74 W3        29.67R
$$

NDZ018>021-031>035-040>046-210800-
SOUTHWEST NORTH DAKOTA

CITY           SKY/WX    TMP DP  RH WIND       PRES   REMARKS
BISMARCK       CLOUDY    36  32  85 E6        29.72F
DICKINSON      FAIR      38  26  62 S10       29.63S
GARRISON         N/A     36  31  82 E8        29.65F
HETTINGER ARPT CLOUDY    41  27  57 S6        29.68F
$$

NDZ004>008-012>016-024-026-027-054-210800-
NORTHEAST NORTH DAKOTA

CITY           SKY/WX    TMP DP  RH WIND       PRES   REMARKS
GRAND FORKS    CLEAR     30  25  81 S6        29.74R
GRND FRKS AFB  CLEAR     28  28  99 CALM      29.73S
DEVILS LAKE    MOCLDY    31  30  96 CALM      29.72F
$$

NDZ022-023-025-028>030-036>039-047>053-210800-
SOUTHEAST NORTH DAKOTA

CITY           SKY/WX    TMP DP  RH WIND       PRES   REMARKS
FARGO          CLEAR     33  32  96 S8        29.77R
JAMESTOWN      MOCLDY    30  30 100 S6        29.74F
$$





USA.gov is the U.S. government's official web portal to all federal, state and local government web resources and services.